User: anonymous
Location: Caltech
(34.1382°N, 118.1253°W)
Time: 19:11:12
(UTC-07:00)
Language:

Iridium 14 - Orbit

View from above orbital plane
View from above orbital plane
View from above satellite
View from above satellite

Ground track
Ground track

The orbit data is extracted from the following two-line orbital elements,

1 25777U 99032A   14264.45890874  .00000110  00000-0  32315-4 0   871
2 25777 086.3918 281.8059 0002479 097.6982 014.3728 14.34228132811387
Epoch (UTC): 21 September 2014 11:00:49
Eccentricity: 0.0002479
inclination: 86.3918°
perigee height: 776 km
apogee height: 779 km
right ascension of ascending node: 281.8059°
argument of perigee: 97.6982°
revolutions per day: 14.34228132
mean anomaly at epoch: 14.3728°
orbit number at epoch: 81138

The dashed part of the orbit path shows where the satellite is in the earth's shadow,  

DLR